When you browse on this site, cookies collect data to enhance your experience and personalize the content and advertising you see.
Visit our Privacy Policy to learn more. By continuing to use the site, you agree to this use of cookies and data.
  • In Hungary
  • List of Countries
  • For 7 days
  • Water Temperature
  • Satellite Maps
  • Weather Map
  • News
  • Weather Widgets
  • user-avatar
    Login

    Hourly Weather Mbandaka

    Today, 17 December, Monday

    Time Temperature Precipitation Wind Pressure Humidity
    00:00 +24°C° 0 mm 0 mps 732 mmHg 83%
    01:00 +24°C° 0 mm 0 mps 732 mmHg 83%
    02:00 +23°C° 0 mm 0 mps 732 mmHg 83%
    03:00 +23°C° 0 mm 0 mps 732 mmHg 84%
    04:00 +25°C° 0 mm 1 mps 732 mmHg 84%
    05:00 +26°C° 0 mm 1 mps 732 mmHg 83%
    06:00 +26°C° 0 mm 1 mps 732 mmHg 82%
    07:00 +26°C° 0 mm 1 mps 733 mmHg 81%
    08:00 +28°C° 0.3 mm 1 mps 733 mmHg 75%
    09:00 +30°C° 0.3 mm 1 mps 733 mmHg 68%
    10:00 +32°C° 0.3 mm 1 mps 733 mmHg 61%
    11:00 +33°C° 0.2 mm 1 mps 732 mmHg 55%
    12:00 +35°C° 0.2 mm 1 mps 732 mmHg 48%
    13:00 +36°C° 0.2 mm 1 mps 731 mmHg 42%
    14:00 +36°C° 0 mm 1 mps 731 mmHg 43%
    15:00 +35°C° 0 mm 1 mps 730 mmHg 43%
    16:00 +35°C° 0 mm 1 mps 729 mmHg 44%
    17:00 +33°C° 0 mm 1 mps 730 mmHg 51%
    18:00 +31°C° 0 mm 1 mps 730 mmHg 58%
    19:00 +29°C° 0 mm 1 mps 730 mmHg 65%
    20:00 +28°C° 0 mm 1 mps 731 mmHg 67%
    21:00 +28°C° 0 mm 1 mps 731 mmHg 70%
    22:00 +27°C° 0 mm 1 mps 732 mmHg 73%
    23:00 +27°C° 0 mm 1 mps 731 mmHg 75%

    Tomorrow, 18 December, Tuesday

    Time Temperature Precipitation Wind Pressure Humidity
    00:00 +26°C° 0 mm 1 mps 731 mmHg 77%
    01:00 +26°C° 0 mm 1 mps 731 mmHg 79%
    02:00 +26°C° 0.1 mm 1 mps 731 mmHg 81%
    03:00 +25°C° 0.1 mm 1 mps 731 mmHg 84%
    04:00 +25°C° 0.1 mm 1 mps 731 mmHg 86%
    05:00 +25°C° 0 mm 1 mps 731 mmHg 85%
    06:00 +26°C° 0 mm 2 mps 732 mmHg 84%
    07:00 +26°C° 0 mm 2 mps 732 mmHg 82%
    08:00 +29°C° 0 mm 2 mps 732 mmHg 74%
    09:00 +31°C° 0 mm 2 mps 733 mmHg 65%
    10:00 +34°C° 0 mm 2 mps 733 mmHg 57%
    11:00 +34°C° 0.6 mm 2 mps 732 mmHg 58%
    12:00 +33°C° 0.6 mm 1 mps 731 mmHg 58%
    13:00 +33°C° 0.6 mm 1 mps 731 mmHg 59%
    14:00 +33°C° 0.3 mm 1 mps 730 mmHg 58%
    15:00 +33°C° 0.3 mm 1 mps 730 mmHg 57%
    16:00 +31°C° 0.3 mm 0 mps 729 mmHg 57%
    17:00 +29°C° 0.1 mm 0 mps 730 mmHg 63%
    18:00 +27°C° 0.1 mm 0 mps 730 mmHg 68%
    19:00 +26°C° 0.1 mm 0 mps 730 mmHg 74%
    20:00 +25°C° 0.1 mm 0 mps 730 mmHg 77%
    21:00 +25°C° 0.1 mm 0 mps 731 mmHg 79%
    22:00 +24°C° 0.1 mm 0 mps 731 mmHg 82%
    23:00 +24°C° 0 mm 0 mps 731 mmHg 83%

    Day after tomorrow, 19 December, Wednesday

    Time Temperature Precipitation Wind Pressure Humidity
    00:00 +25°C° 0 mm 1 mps 731 mmHg 85%
    01:00 +25°C° 0 mm 1 mps 731 mmHg 86%
    02:00 +25°C° 0 mm 1 mps 730 mmHg 87%
    03:00 +25°C° 0 mm 1 mps 730 mmHg 89%
    04:00 +25°C° 0 mm 1 mps 730 mmHg 90%
    05:00 +25°C° 0.7 mm 1 mps 731 mmHg 91%
    06:00 +25°C° 0.7 mm 1 mps 732 mmHg 92%
    07:00 +25°C° 0.7 mm 1 mps 732 mmHg 93%
    08:00 +26°C° 0.5 mm 1 mps 733 mmHg 87%
    09:00 +28°C° 0.5 mm 1 mps 733 mmHg 81%
    10:00 +29°C° 0.5 mm 1 mps 733 mmHg 75%
    11:00 +31°C° 0.3 mm 1 mps 732 mmHg 68%
    12:00 +32°C° 0.3 mm 2 mps 732 mmHg 60%
    13:00 +34°C° 0.3 mm 2 mps 731 mmHg 53%
    14:00 +34°C° 0.1 mm 2 mps 730 mmHg 53%
    15:00 +34°C° 0.1 mm 2 mps 730 mmHg 53%
    16:00 +33°C° 0.1 mm 1 mps 729 mmHg 52%
    17:00 +31°C° 0 mm 1 mps 730 mmHg 60%
    18:00 +29°C° 0 mm 1 mps 730 mmHg 67%
    19:00 +25°C° 0 mm 0 mps 731 mmHg 74%
    20:00 +27°C° 0.2 mm 1 mps 731 mmHg 77%
    21:00 +26°C° 0.2 mm 1 mps 732 mmHg 80%
    22:00 +26°C° 0.2 mm 1 mps 732 mmHg 84%
    23:00 +25°C° 2.2 mm 1 mps 732 mmHg 88%

    20 December, Thursday

    Time Temperature Precipitation Wind Pressure Humidity
    00:00 +25°C° 2.2 mm 1 mps 732 mmHg 92%
    01:00 +24°C° 2.2 mm 1 mps 731 mmHg 96%
    02:00 +24°C° 0.8 mm 1 mps 731 mmHg 95%
    03:00 +24°C° 0.8 mm 1 mps 731 mmHg 95%
    04:00 +24°C° 0.8 mm 2 mps 731 mmHg 94%
    05:00 +24°C° 0.1 mm 2 mps 731 mmHg 93%
    06:00 +24°C° 0.1 mm 1 mps 732 mmHg 92%
    07:00 +24°C° 0.1 mm 1 mps 732 mmHg 91%
    08:00 +27°C° 0 mm 1 mps 732 mmHg 80%
    09:00 +29°C° 0 mm 2 mps 732 mmHg 69%
    10:00 +31°C° 0 mm 2 mps 732 mmHg 58%
    11:00 +34°C° 0 mm 2 mps 732 mmHg 52%
    12:00 +34°C° 0 mm 1 mps 731 mmHg 46%
    13:00 +36°C° 0 mm 1 mps 730 mmHg 39%
    14:00 +35°C° 0 mm 1 mps 730 mmHg 43%
    15:00 +34°C° 0 mm 1 mps 729 mmHg 46%
    16:00 +33°C° 0 mm 1 mps 729 mmHg 50%
    17:00 +31°C° 0.1 mm 1 mps 730 mmHg 56%
    18:00 +29°C° 0.1 mm 1 mps 730 mmHg 63%
    19:00 +26°C° 0.1 mm 0 mps 731 mmHg 70%
    20:00 +25°C° 0 mm 0 mps 731 mmHg 73%
    21:00 +24°C° 0 mm 0 mps 731 mmHg 75%
    22:00 +24°C° 0 mm 0 mps 732 mmHg 78%
    23:00 +26°C° 0 mm 1 mps 731 mmHg 78%

    21 December, Friday

    Time Temperature Precipitation Wind Pressure Humidity
    00:00 +25°C° 0 mm 1 mps 731 mmHg 79%
    01:00 +25°C° 0 mm 1 mps 731 mmHg 80%
    02:00 +25°C° 0.1 mm 1 mps 731 mmHg 81%
    03:00 +25°C° 0.1 mm 1 mps 731 mmHg 83%
    04:00 +25°C° 0.1 mm 1 mps 731 mmHg 85%
    05:00 +25°C° 0 mm 1 mps 731 mmHg 83%
    06:00 +25°C° 0 mm 1 mps 732 mmHg 82%
    07:00 +26°C° 0 mm 2 mps 732 mmHg 81%
    08:00 +28°C° 0 mm 2 mps 733 mmHg 73%
    09:00 +30°C° 0 mm 2 mps 733 mmHg 65%
    10:00 +32°C° 0 mm 2 mps 733 mmHg 57%
    11:00 +32°C° 0.6 mm 2 mps 732 mmHg 57%
    12:00 +32°C° 0.6 mm 1 mps 731 mmHg 57%
    13:00 +33°C° 0.6 mm 1 mps 730 mmHg 57%
    14:00 +32°C° 0.6 mm 1 mps 730 mmHg 59%
    15:00 +32°C° 0.6 mm 1 mps 730 mmHg 60%
    16:00 +31°C° 0.6 mm 1 mps 730 mmHg 61%
    17:00 +30°C° 0.1 mm 1 mps 730 mmHg 68%
    18:00 +28°C° 0.1 mm 1 mps 730 mmHg 76%
    19:00 +26°C° 0.1 mm 1 mps 730 mmHg 83%
    20:00 +26°C° 0 mm 1 mps 730 mmHg 85%
    21:00 +25°C° 0 mm 1 mps 731 mmHg 86%
    22:00 +25°C° 0 mm 1 mps 731 mmHg 88%
    23:00 +25°C° 0 mm 1 mps 731 mmHg 88%

    22 December, Saturday

    Time Temperature Precipitation Wind Pressure Humidity
    00:00 +25°C° 0 mm 1 mps 730 mmHg 88%
    01:00 +23°C° 0 mm 0 mps 730 mmHg 88%
    02:00 +24°C° 0 mm 1 mps 730 mmHg 88%
    03:00 +24°C° 0 mm 1 mps 730 mmHg 89%
    04:00 +24°C° 0 mm 1 mps 730 mmHg 89%
    05:00 +24°C° 0 mm 1 mps 730 mmHg 87%
    06:00 +25°C° 0 mm 1 mps 731 mmHg 84%
    07:00 +25°C° 0 mm 1 mps 731 mmHg 82%
    08:00 +28°C° 0 mm 1 mps 731 mmHg 72%
    09:00 +30°C° 0 mm 2 mps 731 mmHg 63%
    10:00 +32°C° 0 mm 2 mps 731 mmHg 53%
    11:00 +35°C° 0 mm 2 mps 731 mmHg 47%
    12:00 +36°C° 0 mm 1 mps 730 mmHg 41%
    13:00 +37°C° 0 mm 1 mps 729 mmHg 35%
    14:00 +36°C° 0 mm 1 mps 729 mmHg 37%
    15:00 +35°C° 0 mm 1 mps 728 mmHg 39%
    16:00 +35°C° 0 mm 1 mps 728 mmHg 41%
    17:00 +33°C° 0 mm 1 mps 728 mmHg 47%
    18:00 +31°C° 0 mm 1 mps 729 mmHg 53%
    19:00 +29°C° 0 mm 1 mps 729 mmHg 59%
    20:00 +28°C° 0 mm 1 mps 729 mmHg 62%
    21:00 +28°C° 0 mm 1 mps 730 mmHg 66%
    22:00 +27°C° 0 mm 1 mps 730 mmHg 69%
    23:00 +27°C° 0 mm 1 mps 730 mmHg 71%
    Show more